| time (UTC) | temp F | wind direction | speed knots | gust knots | rain 1hr in | rain 24hr in | rain mn in | humidity % | barometer mb |
| 20260506221543 | 82 | 148 | 6.1 | 14.8 | 0.00 | 0.00 | 0.00 | 74 | 1015.2 |
| 20260506220042 | 82 | 144 | 7.8 | 14.8 | 0.00 | 0.00 | 0.00 | 73 | 1015.2 |
| 20260506214542 | 83 | 136 | 7.0 | 13.0 | 0.00 | 0.00 | 0.00 | 72 | 1015.0 |
| 20260506213042 | 83 | 154 | 7.0 | 13.0 | 0.00 | 0.00 | 0.00 | 71 | 1014.8 |
| 20260506211539 | 83 | 136 | 6.1 | 10.4 | 0.00 | 0.00 | 0.00 | 70 | 1015.0 |
| 20260506210039 | 84 | 154 | 4.3 | 16.5 | 0.00 | 0.00 | 0.00 | 69 | 1015.0 |
| 20260506204543 | 86 | 136 | 3.5 | 10.4 | 0.00 | 0.00 | 0.00 | 67 | 1015.0 |
| 20260506203037 | 86 | 219 | 4.3 | 9.6 | 0.00 | 0.00 | 0.00 | 58 | 1015.0 |
| 20260506201535 | 88 | 236 | 4.3 | 12.2 | 0.00 | 0.00 | 0.00 | 53 | 1015.1 |
| 20260506200034 | 88 | 252 | 2.6 | 17.4 | 0.00 | 0.00 | 0.00 | 53 | 1015.1 |
| 20260506194534 | 88 | 198 | 4.3 | 9.6 | 0.00 | 0.00 | 0.00 | 54 | 1015.3 |
| 20260506193031 | 87 | 247 | 3.5 | 12.2 | 0.00 | 0.00 | 0.00 | 54 | 1015.5 |
| 20260506191526 | 87 | 203 | 5.2 | 8.7 | 0.00 | 0.00 | 0.00 | 56 | 1015.7 |
| 20260506190022 | 86 | 167 | 6.1 | 11.3 | 0.00 | 0.00 | 0.00 | 57 | 1016.1 |
| 20260506184520 | 86 | 277 | 6.1 | 13.0 | 0.00 | 0.00 | 0.00 | 56 | 1016.4 |
| 20260506183018 | 85 | 259 | 3.5 | 8.7 | 0.00 | 0.00 | 0.00 | 57 | 1016.7 |
| 20260506181516 | 85 | 234 | 6.1 | 15.6 | 0.00 | 0.00 | 0.00 | 60 | 1016.9 |
| 20260506180014 | 84 | 231 | 7.8 | 13.9 | 0.00 | 0.00 | 0.00 | 58 | 1017.2 |
| 20260506174512 | 84 | 225 | 8.7 | 15.6 | 0.00 | 0.00 | 0.00 | 60 | 1017.5 |
| 20260506173012 | 83 | 259 | 7.8 | 15.6 | 0.00 | 0.00 | 0.00 | 61 | 1017.6 |
| 20260506171511 | 83 | 236 | 7.0 | 16.5 | 0.00 | 0.00 | 0.00 | 61 | 1017.9 |
| 20260506170008 | 83 | 247 | 5.2 | 13.9 | 0.00 | 0.00 | 0.00 | 62 | 1018.2 |
| 20260506164506 | 82 | 217 | 0.9 | 13.9 | 0.00 | 0.00 | 0.00 | 63 | 1018.3 |
| 20260506163004 | 82 | 178 | 4.3 | 13.9 | 0.00 | 0.00 | 0.00 | 65 | 1018.7 |
| 20260506161502 | 81 | 261 | 7.0 | 8.7 | 0.00 | 0.00 | 0.00 | 65 | 1018.7 |
| 20260506160059 | 80 | 224 | 4.3 | 9.6 | 0.00 | 0.00 | 0.00 | 66 | 1018.8 |
| 20260506154619 | 79 | 241 | 4.3 | 10.4 | 0.00 | 0.00 | 0.00 | 69 | 1018.9 |
| 20260506153107 | 79 | 240 | 7.8 | 13.0 | 0.00 | 0.00 | 0.00 | 68 | 1018.9 |
| 20260506151557 | 78 | 250 | 2.6 | 13.0 | 0.00 | 0.00 | 0.00 | 71 | 1018.9 |
| 20260506150049 | 77 | 237 | 9.6 | 13.9 | 0.00 | 0.00 | 0.00 | 71 | 1019.1 |
| 20260506144546 | 77 | 279 | 4.3 | 10.4 | 0.00 | 0.00 | 0.00 | 74 | 1018.5 |
| 20260506143051 | 75 | 206 | 7.0 | 15.6 | 0.00 | 0.00 | 0.00 | 74 | 1018.7 |
| 20260506141538 | 75 | 259 | 3.5 | 9.6 | 0.00 | 0.00 | 0.00 | 76 | 1018.6 |
| 20260506140032 | 74 | 193 | 5.2 | 12.2 | 0.00 | 0.00 | 0.00 | 77 | 1018.8 |
| 20260506134529 | 72 | 228 | 4.3 | 13.0 | 0.00 | 0.00 | 0.00 | 79 | 1018.6 |
| 20260506133026 | 71 | 209 | 6.1 | 10.4 | 0.00 | 0.00 | 0.00 | 80 | 1018.3 |
| 20260506131522 | 70 | 222 | 4.3 | 13.0 | 0.00 | 0.00 | 0.00 | 82 | 1018.1 |
| 20260506130018 | 69 | 221 | 3.5 | 7.8 | 0.00 | 0.00 | 0.00 | 84 | 1018.2 |
| 20260506124514 | 68 | 210 | 2.6 | 8.7 | 0.00 | 0.00 | 0.00 | 86 | 1018.2 |
| 20260506123011 | 66 | 219 | 3.5 | 9.6 | 0.00 | 0.00 | 0.00 | 88 | 1018.2 |
| 20260506121505 | 65 | 193 | 3.5 | 8.7 | 0.00 | 0.00 | 0.00 | 90 | 1017.8 |
| 20260506120002 | 64 | 209 | 2.6 | 7.0 | 0.00 | 0.00 | 0.00 | 92 | 1018.0 |
| 20260506114500 | 62 | 200 | 1.7 | 6.1 | 0.00 | 0.00 | 0.00 | 93 | 1017.7 |
| 20260506113100 | 61 | 197 | 1.7 | 5.2 | 0.00 | 0.00 | 0.00 | 94 | 1017.6 |
| 20260506111600 | 61 | 184 | 0.9 | 3.5 | 0.00 | 0.00 | 0.00 | 95 | 1017.4 |
| 20260506110104 | 60 | 179 | 0.9 | 2.6 | 0.00 | 0.00 | 0.00 | 95 | 1017.3 |
| 20260506104600 | 60 | 180 | 0.9 | 3.5 | 0.00 | 0.00 | 0.00 | 95 | 1017.1 |
| 20260506103058 | 60 | 185 | 0.9 | 3.5 | 0.00 | 0.00 | 0.00 | 95 | 1016.8 |
| 20260506101604 | 60 | 204 | 0.9 | 2.6 | 0.00 | 0.00 | 0.00 | 94 | 1017.0 |
| 20260506100055 | 60 | 207 | 0.9 | 2.6 | 0.00 | 0.00 | 0.00 | 94 | 1017.1 |
| 20260506094616 | 61 | 207 | 0.9 | 2.6 | 0.00 | 0.00 | 0.00 | 93 | 1017.1 |
| 20260506093055 | 61 | 207 | 0.9 | 2.6 | 0.00 | 0.00 | 0.00 | 93 | 1017.1 |
| 20260506091551 | 62 | 205 | 0.9 | 2.6 | 0.00 | 0.00 | 0.00 | 92 | 1017.0 |
| 20260506090050 | 62 | 208 | 0.9 | 3.5 | 0.00 | 0.00 | 0.00 | 92 | 1017.0 |
| 20260506084550 | 62 | 205 | 2.6 | 6.1 | 0.00 | 0.00 | 0.00 | 92 | 1016.9 |
| 20260506083049 | 62 | 192 | 1.7 | 4.3 | 0.00 | 0.00 | 0.00 | 92 | 1016.8 |
| 20260506081550 | 62 | 198 | 1.7 | 5.2 | 0.00 | 0.00 | 0.00 | 91 | 1017.0 |
| 20260506073047 | 62 | 175 | 1.7 | 5.2 | 0.00 | 0.00 | 0.00 | 92 | 1016.7 |
| 20260506071545 | 63 | 174 | 0.0 | 2.6 | 0.00 | 0.00 | 0.00 | 91 | 1016.9 |
| 20260506061539 | 63 | 169 | 1.7 | 5.2 | 0.00 | 0.00 | 0.00 | 92 | 1017.2 |
| 20260506044538 | 62 | 173 | 0.0 | 2.6 | 0.00 | 0.00 | 0.00 | 91 | 1017.9 |
| 20260506043025 | 63 | 175 | 0.0 | 1.7 | 0.00 | 0.00 | 0.00 | 90 | 1017.9 |
| 20260506041523 | 63 | 171 | 0.0 | 1.7 | 0.00 | 0.00 | 0.00 | 89 | 1017.9 |
| 20260506040046 | 64 | 162 | 0.9 | 4.3 | 0.00 | 0.00 | 0.00 | 89 | 1017.8 |
| 20260506034520 | 63 | 161 | 2.6 | 4.3 | 0.00 | 0.00 | 0.00 | 89 | 1018.0 |
| 20260506033119 | 63 | 165 | 0.9 | 2.6 | 0.00 | 0.00 | 0.00 | 87 | 1018.2 |
| 20260506031536 | 64 | 165 | 0.0 | 0.9 | 0.00 | 0.00 | 0.00 | 86 | 1018.2 |
| 20260506030020 | 65 | 156 | 0.9 | 4.3 | 0.00 | 0.00 | 0.00 | 84 | 1018.2 |
| 20260506024521 | 65 | 140 | 2.6 | 6.1 | 0.00 | 0.00 | 0.00 | 83 | 1018.1 |
| 20260506023016 | 66 | 143 | 3.5 | 6.1 | 0.00 | 0.00 | 0.00 | 83 | 1017.9 |
| 20260506021516 | 66 | 156 | 2.6 | 6.1 | 0.00 | 0.00 | 0.00 | 82 | 1017.8 |
| 20260506020017 | 66 | 155 | 2.6 | 6.1 | 0.00 | 0.00 | 0.00 | 82 | 1017.7 |
| 20260506014515 | 66 | 149 | 3.5 | 7.0 | 0.00 | 0.00 | 0.00 | 82 | 1017.5 |
| 20260506013015 | 67 | 139 | 5.2 | 7.8 | 0.00 | 0.00 | 0.00 | 81 | 1017.4 |
| 20260506011515 | 67 | 142 | 4.3 | 7.8 | 0.00 | 0.00 | 0.00 | 80 | 1017.5 |
| 20260506010014 | 68 | 149 | 5.2 | 7.8 | 0.00 | 0.00 | 0.00 | 79 | 1017.5 |
| 20260506004522 | 68 | 146 | 3.5 | 8.7 | 0.00 | 0.00 | 0.00 | 78 | 1017.4 |
| 20260506003015 | 69 | 142 | 4.3 | 8.7 | 0.00 | 0.00 | 0.00 | 77 | 1017.3 |
| 20260506001514 | 69 | 135 | 6.1 | 10.4 | 0.00 | 0.00 | 0.00 | 75 | 1017.0 |
| 20260506000011 | 70 | 132 | 7.0 | 12.2 | 0.00 | 0.00 | 0.00 | 73 | 1016.9 |
| 20260505234511 | 71 | 115 | 7.0 | 10.4 | 0.00 | 0.00 | 0.00 | 72 | 1016.9 |
| 20260505233008 | 72 | 139 | 8.7 | 12.2 | 0.00 | 0.00 | 0.00 | 70 | 1017.3 |
| 20260505231508 | 72 | 153 | 8.7 | 13.9 | 0.00 | 0.00 | 0.00 | 69 | 1017.0 |
| 20260505230006 | 73 | 155 | 7.0 | 13.0 | 0.00 | 0.00 | 0.00 | 69 | 1017.1 |
| 20260505224506 | 73 | 140 | 11.3 | 16.5 | 0.00 | 0.00 | 0.00 | 67 | 1017.0 |
| 20260505223005 | 73 | 133 | 10.4 | 16.5 | 0.00 | 0.00 | 0.00 | 66 | 1016.9 |